This is the latest recevied weather packets stored in our database for station/object KE5WTH-14. If no packets are shown the sender has not sent any weather packets the latest 1 day(s).
| Time | Temp. | Humidity | Pressure | Rain* | Wind** | Luminosity | Snow |
|---|---|---|---|---|---|---|---|
| 1778091477 | 13.89° C | 81% | 1013.9 hPa | 0 mm | - | 473 W/m² | - |
| 1778091296 | 13.89° C | 80% | 1013.9 hPa | 0 mm | - | 473 W/m² | - |
| 1778090866 | 13.33° C | 81% | 1014 hPa | 0 mm | - | 394 W/m² | - |
| 1778090805 | 13.33° C | 81% | 1014.1 hPa | 0 mm | - | 376 W/m² | - |
| 1778090682 | 13.33° C | 82% | 1014 hPa | 0 mm | - | 378 W/m² | - |
| 1778090620 | 13.33° C | 82% | 1014 hPa | 0 mm | - | 362 W/m² | - |
| 1778090373 | 13.33° C | 82% | 1014 hPa | 0 mm | - | 257 W/m² | - |
| 1778090252 | 13.33° C | 83% | 1013.8 hPa | 0 mm | - | 234 W/m² | - |
| 1778089953 | 13.33° C | 81% | 1013.7 hPa | 0 mm | - | 243 W/m² | - |
| 1778089772 | 13.33° C | 82% | 1013.5 hPa | 0 mm | - | 248 W/m² | - |
| 1778089438 | 13.33° C | 83% | 1013.8 hPa | 0 mm | - | 234 W/m² | - |
| 1778089142 | 12.78° C | 83% | 1013.7 hPa | 0 mm | - | 327 W/m² | - |
| 1778089113 | 12.78° C | 84% | 1013.7 hPa | 0 mm | - | 327 W/m² | - |
| 1778088790 | 12.78° C | 83% | 1014 hPa | 0 mm | - | 281 W/m² | - |
| 1778088609 | 12.78° C | 84% | 1014.3 hPa | 0 mm | - | 227 W/m² | - |
| 1778088297 | 12.78° C | 84% | 1014 hPa | 0 mm | - | 260 W/m² | - |
| 1778088113 | 12.78° C | 85% | 1014 hPa | 0 mm | - | 199 W/m² | - |
| 1778087867 | 12.78° C | 85% | 1014.3 hPa | 0 mm | - | 162 W/m² | - |
| 1778087744 | 12.78° C | 85% | 1014.4 hPa | 0 mm | - | 139 W/m² | - |
| 1778087620 | 12.78° C | 85% | 1014.6 hPa | 0 mm | - | 120 W/m² | - |
| 1778087331 | 12.22° C | 86% | 1015.7 hPa | 1.02 mm | - | 51 W/m² | - |
| 1778087294 | 12.78° C | 86% | 1014.5 hPa | 0 mm | - | 183 W/m² | - |
| 1778087238 | 12.78° C | 86% | 1014.6 hPa | 0 mm | - | 183 W/m² | - |
| 1778087205 | 12.78° C | 86% | 1014.7 hPa | 0 mm | - | 197 W/m² | - |
| 1778087176 | 12.78° C | 86% | 1014.6 hPa | 0 mm | - | 211 W/m² | - |
* Rain latest hour (hover to see other rain measurements)
** Current wind speed in m/s (hover to see current wind gust speed)